Weather History for Istanbul, Turkey

Change the Weather History Date:

Sunday, January 1, 2012

  Actual Average Record
Temperature  
Mean Temperature 41 °F -  
Max Temperature 45 °F 46 °F 57 °F (2001)
Min Temperature 37 °F 37 °F 30 °F (2009)
Degree Days  
Heating Degree Days 24    
Moisture  
Dew Point 37 °F    
Average Humidity 80    
Maximum Humidity 100    
Minimum Humidity 40    
Precipitation  
Precipitation 0.01 in - - ()
Sea Level Pressure  
Sea Level Pressure 30.05 in    
Wind  
Wind Speed 18 mph ()    
Max Wind Speed 28 mph    
Max Gust Speed 39 mph    
Visibility 5.0 miles    
Events Rain    
Averages and records for this station are not official NWS values.
T = Trace of Precipitation, MM = Missing Value Source: Averaged Metar Reports

Daily Weather History Graph

Daily Weather History Graph

Search for Another Location

Airport:

Trip Planner

Search our weather history database for the weather conditions in past years. The results will help you decide how hot, cold, wet, or windy it might be!

Date:

Astronomy

Jan. 01, 2012 Rise Set
Actual Time 7:29 AM EET 4:46 PM EET
Civil Twilight 6:58 AM EET 5:17 PM EET
Nautical Twilight 6:24 AM EET 5:52 PM EET
Astronomical Twilight 5:50 AM EET 6:25 PM EET
Moon 11:28 AM EET (1/1) 12:03 AM EET (1/1)
Length of Visible Light 10h 19m
Length of Day
9h 17m
First Quarter, 51% of the Moon is Illuminated
Jan 1
First Quarter
Jan 9
Full
Jan 16
Last Quarter
Jan 23
New
Jan 31
First Quarter

Hourly Weather History & Observations

Time (EET) Temp. Windchill Dew Point Humidity Pressure Visibility Wind Dir Wind Speed Gust Speed Precip Events Conditions
12:20 AM 44.6 °F 35.9 °F 42.8 °F 93% 29.83 in 3.7 mi NNW 23.0 mph - N/A Rain Light Rain Showers
12:50 AM 42.8 °F 33.5 °F 42.8 °F 100% 29.83 in 4.3 mi NNW 23.0 mph - N/A Rain Light Rain Showers
1:20 AM 42.8 °F 33.8 °F 42.8 °F 100% 29.83 in 4.3 mi NNW 21.9 mph - N/A Rain Light Rain Showers
1:50 AM 42.8 °F 33.8 °F 42.8 °F 100% 29.86 in 4.3 mi NNW 21.9 mph - N/A Rain Light Rain Showers
2:00 AM 43 °F - 43 °F 100% 29.86 in 4 mi NNW 21.9 mph - - Rain Light Rain Showers
2:20 AM 42.8 °F 33.8 °F 42.8 °F 100% 29.86 in 4.3 mi NNW 21.9 mph - N/A Rain Light Rain Showers
2:50 AM 42.8 °F 33.3 °F 42.8 °F 100% 29.86 in 3.7 mi NNW 24.2 mph - N/A Rain Light Rain Showers
3:20 AM 44.6 °F 35.9 °F 42.8 °F 93% 29.86 in 4.3 mi North 23.0 mph - N/A Rain Light Rain Showers
3:50 AM 44.6 °F 35.7 °F 42.8 °F 93% 29.86 in 4.3 mi North 24.2 mph - N/A Rain Light Rain Showers
4:20 AM 44.6 °F 35.9 °F 42.8 °F 93% 29.86 in 4.3 mi North 23.0 mph - N/A Rain Light Rain Showers
4:50 AM 42.8 °F 33.3 °F 42.8 °F 100% 29.89 in 4.3 mi North 24.2 mph 35.7 mph N/A Rain Light Rain Showers
5:20 AM 42.8 °F 32.7 °F 41.0 °F 93% 29.89 in 4.3 mi North 27.6 mph 39.1 mph N/A Rain Light Rain Showers
5:50 AM 42.8 °F 32.9 °F 41.0 °F 93% 29.89 in 4.3 mi North 26.5 mph - N/A Rain Light Rain Showers
6:20 AM 42.8 °F 33.3 °F 41.0 °F 93% 29.92 in 4.3 mi North 24.2 mph - N/A Rain Light Rain Showers
6:50 AM 42.8 °F 33.5 °F 41.0 °F 93% 29.92 in 3.7 mi North 23.0 mph 35.7 mph N/A Rain Light Rain Showers
7:20 AM 42.8 °F 34.0 °F 41.0 °F 93% 29.95 in 3.7 mi North 20.7 mph - N/A Rain Light Rain Showers
7:50 AM 44.6 °F 36.6 °F 41.0 °F 87% 29.98 in 6.2 mi North 19.6 mph - N/A   Mostly Cloudy
8:00 AM 44 °F - 41 °F 84% 29.99 in 6 mi North 19.6 mph - - Rain Light Rain Showers
8:20 AM 44.6 °F 36.6 °F 41.0 °F 87% 29.98 in 3.7 mi North 19.6 mph - N/A Rain Light Rain Showers
8:50 AM 42.8 °F 34.3 °F 41.0 °F 93% 30.01 in 3.7 mi North 19.6 mph 31.1 mph N/A Rain Light Rain Showers
9:20 AM 42.8 °F 33.5 °F 41.0 °F 93% 30.01 in 3.7 mi North 23.0 mph - N/A Rain Light Rain Showers
9:50 AM 42.8 °F 34.0 °F 41.0 °F 93% 30.04 in 3.7 mi North 20.7 mph - N/A Rain Light Rain Showers
10:20 AM 42.8 °F 33.3 °F 39.2 °F 87% 30.04 in 3.7 mi North 24.2 mph - N/A Rain Light Rain Showers
10:50 AM 42.8 °F 33.8 °F 41.0 °F 93% 30.06 in 3.7 mi North 21.9 mph - N/A Rain Light Rain Showers
11:20 AM 42.8 °F 34.0 °F 39.2 °F 87% 30.06 in 5.0 mi North 20.7 mph 32.2 mph N/A Rain Light Rain Showers
11:50 AM 42.8 °F 34.0 °F 39.2 °F 87% 30.06 in 6.2 mi North 20.7 mph - N/A   Mostly Cloudy
12:20 PM 42.8 °F 34.0 °F 39.2 °F 87% 30.06 in 5.0 mi North 20.7 mph - N/A   Mostly Cloudy
12:50 PM 42.8 °F 34.5 °F 39.2 °F 87% 30.06 in 5.0 mi North 18.4 mph - N/A   Mostly Cloudy
1:20 PM 42.8 °F 34.0 °F 39.2 °F 87% 30.06 in 5.0 mi North 20.7 mph - N/A   Mostly Cloudy
1:50 PM 42.8 °F 34.0 °F 37.4 °F 81% 30.06 in 5.0 mi North 20.7 mph - N/A   Mostly Cloudy
2:00 PM 43 °F - 38 °F 77% 30.10 in 5 mi North 20.7 mph - -   Mist
2:20 PM 42.8 °F 34.0 °F 39.2 °F 87% 30.09 in 5.0 mi North 20.7 mph - N/A   Mostly Cloudy
2:50 PM 44.6 °F 36.9 °F 37.4 °F 76% 30.09 in 5.0 mi North 18.4 mph - N/A   Mostly Cloudy
3:20 PM 44.6 °F 36.6 °F 37.4 °F 76% 30.12 in 5.0 mi North 19.6 mph - N/A   Mostly Cloudy
3:50 PM 44.6 °F 36.9 °F 35.6 °F 71% 30.12 in 5.0 mi North 18.4 mph - N/A   Mostly Cloudy
4:20 PM 44.6 °F 37.4 °F 33.8 °F 66% 30.15 in 5.0 mi North 16.1 mph - N/A   Mostly Cloudy
4:50 PM 44.6 °F 38.1 °F 32.0 °F 61% 30.15 in 6.2 mi NNE 13.8 mph - N/A   Scattered Clouds
5:20 PM 44.6 °F 38.1 °F 30.2 °F 57% 30.18 in 6.2 mi North 13.8 mph - N/A   Scattered Clouds
5:50 PM 44.6 °F 38.8 °F 30.2 °F 57% 30.18 in 6.2 mi NNE 11.5 mph - N/A   Scattered Clouds
6:20 PM 44.6 °F 38.8 °F 28.4 °F 53% 30.21 in 6.2 mi NNE 11.5 mph - N/A   Scattered Clouds
6:50 PM 42.8 °F 37.0 °F 28.4 °F 57% 30.21 in 6.2 mi NNE 10.4 mph - N/A   Scattered Clouds
7:20 PM 44.6 °F 40.2 °F 28.4 °F 53% 30.21 in 6.2 mi NNE 8.1 mph - N/A   Scattered Clouds
7:50 PM 44.6 °F 41.4 °F 30.2 °F 57% 30.24 in 6.2 mi Variable 5.8 mph - N/A   Scattered Clouds
8:00 PM 45 °F - 28 °F 40% 30.25 in 6 mi NNE 5.8 mph - -   Partly Cloudy
8:20 PM 44.6 °F 39.7 °F 28.4 °F 53% 30.24 in 6.2 mi North 9.2 mph - N/A   Scattered Clouds
8:50 PM 41.0 °F 36.4 °F 28.4 °F 61% 30.24 in 6.2 mi North 6.9 mph - N/A   Scattered Clouds
9:20 PM 42.8 °F 39.3 °F 30.2 °F 61% 30.24 in 6.2 mi North 5.8 mph - N/A   Scattered Clouds
9:50 PM 41.0 °F 38.0 °F 30.2 °F 65% 30.27 in 6.2 mi NNE 4.6 mph - N/A   Scattered Clouds
10:20 PM 41.0 °F 39.0 °F 30.2 °F 65% 30.27 in 6.2 mi NNE 3.5 mph - N/A   Scattered Clouds
10:50 PM 37.4 °F 33.8 °F 28.4 °F 70% 30.27 in 6.2 mi North 4.6 mph - N/A   Scattered Clouds
11:20 PM 39.2 °F 34.2 °F 30.2 °F 70% 30.27 in 6.2 mi North 6.9 mph - N/A   Scattered Clouds
11:50 PM 42.8 °F 38.6 °F 32.0 °F 66% 30.27 in 6.2 mi Variable 6.9 mph - N/A   Scattered Clouds